Terminal Aerodrome Forecast
Issued by NWS Northern Indiana

Home | Current Version | Previous Version | Text Only | Print | Product List | Glossary On
Versions: 1 2 3 4 5 6 7 8 9 10 11 12
000
FTUS43 KIWX 200500
TAFFWA
TAF
KFWA 200521Z 2006/2106 00000KT P6SM FEW070
     FM200700 00000KT 5SM BR SCT010
      TEMPO 2008/2012 2SM BR
     FM201300 07003KT P6SM SCT025
     FM201600 10004KT P6SM SCT045=

USA.gov is the U.S. government's official web portal to all federal, state and local government web resources and services.